QPF
0.00 0.00 0.04 0.12 0.07 0.00 0.00 0.01 0.04 0.03 0.03 0.02 0.01 0.00 0.00 0.00 0.00 0.00 0.00 0.00 0.00 0.00 0.00 0.00 0.00 0.00 0.00 0.00 0.00 0.00 0.00 0.00 0.00 0.00 0.00 0.00 0.01 0.02 0.03 0.01 0.01 0.00 0.01
0.00 0.01 0.04 0.06 0.02 0.00 0.00 0.01 0.02 0.00 0.00 0.00 0.00 0.00 0.00 0.00 0.00 0.00 0.00 0.00 0.00 0.00 0.00 0.00 0.00 0.00 0.00 0.00 0.00 0.00 0.00 0.00 0.00 0.00 0.00 0.00 0.00 0.01 0.00 0.01 0.01 0.00 0.00
0.01 0.03 0.02 0.00 0.00 0.00 0.00 0.00 0.00 0.00 0.00 0.00 0.00 0.00 0.00 0.00 0.00 0.00 0.00 0.00 0.00 0.00 0.00 0.00 0.00 0.00 0.00 0.00 0.00 0.00 0.00 0.00 0.00 0.00 0.00 0.00 0.00 0.00 0.00 0.01 0.01 0.01 0.00
0.02 0.01 0.01 0.00 0.00 0.00 0.00 0.00 0.00 0.00 0.00 0.00 0.00 0.00 0.00 0.00 0.00 0.00 0.00 0.00 0.00 0.00 0.00 0.00 0.00 0.00 0.00 0.00 0.00 0.00 0.00 0.00 0.00 0.00 0.00 0.00 0.00 0.00 0.00 0.00 0.00 0.00 0.00
0.00 0.00 0.00 0.00 0.00 0.00 0.00 0.00 0.00 0.00 0.00 0.00 0.00 0.00 0.00 0.00 0.00 0.00 0.00 0.00 0.00 0.00 0.00 0.00 0.00 0.00 0.00 0.00 0.00 0.00 0.00 0.00 0.00 0.00 0.00 0.00 0.00 0.00 0.00 0.00 0.00 0.00 0.00
0.00 0.00 0.00 0.00 0.00 0.00 0.00 0.00 0.00 0.00 0.00 0.00 0.00 0.00 0.00 0.00 0.00 0.00 0.00 0.00 0.00 0.00 0.00 0.00 0.00 0.00 0.00 0.00 0.00 0.00 0.00 0.00 0.00 0.00 0.00 0.00 0.00 0.00 0.00 0.00 0.00 0.00 0.00
0.00 0.00 0.00 0.00 0.00 0.00 0.00 0.00 0.00 0.00 0.00 0.00 0.00 0.00 0.00 0.00 0.00 0.00 0.00 0.00 0.00 0.00 0.00 0.00 0.00 0.00 0.00 0.00 0.00 0.00 0.00 0.00 0.00 0.00 0.00 0.00 0.00 0.00 0.00 0.00 0.00 0.00 0.00
0.00 0.00 0.00 0.00 0.00 0.00 0.00 0.00 0.00 0.00 0.00 0.00 0.00 0.00 0.00 0.00 0.00 0.00 0.00 0.00 0.00 0.00 0.00 0.00 0.00 0.00 0.00 0.00 0.00 0.00 0.00 0.00 0.00 0.00 0.00 0.00 0.00 0.00 0.00 0.00 0.00 0.00 0.00
0.00 0.00 0.00 0.00 0.00 0.00 0.00 0.00 0.00 0.00 0.00 0.00 0.00 0.00 0.00 0.00 0.00 0.00 0.00 0.00 0.00 0.00 0.00 0.00 0.00 0.00 0.00 0.00 0.00 0.00 0.00 0.00 0.00 0.00 0.00 0.00 0.00 0.00 0.00 0.00 0.00 0.00 0.00
0.00 0.00 0.00 0.00 0.00 0.00 0.00 0.00 0.00 0.00 0.00 0.00 0.00 0.00 0.00 0.00 0.00 0.00 0.00 0.00 0.00 0.00 0.00 0.00 0.00 0.00 0.00 0.00 0.00 0.00 0.00 0.00 0.00 0.00 0.00 0.00 0.00 0.00 0.00 0.00 0.00 0.00 0.00
0.00 0.00 0.00 0.00 0.00 0.00 0.00 0.00 0.00 0.00 0.00 0.00 0.00 0.00 0.00 0.00 0.00 0.00 0.00 0.00 0.00 0.00 0.00 0.00 0.00 0.00 0.00 0.00 0.00 0.00 0.00 0.00 0.00 0.00 0.00 0.00 0.00 0.00 0.00 0.00 0.00 0.00 0.00
0.00 0.00 0.00 0.00 0.00 0.00 0.00 0.00 0.00 0.00 0.00 0.00 0.00 0.00 0.00 0.00 0.00 0.00 0.00 0.00 0.00 0.00 0.00 0.00 0.00 0.00 0.00 0.00 0.00 0.00 0.00 0.00 0.00 0.00 0.00 0.00 0.00 0.00 0.00 0.00 0.00 0.00 0.00
0.00 0.00 0.00 0.00 0.00 0.00 0.00 0.00 0.00 0.00 0.00 0.00 0.00 0.00 0.00 0.00 0.00 0.00 0.00 0.00 0.00 0.00 0.00 0.00 0.00 0.00 0.00 0.00 0.00 0.00 0.00 0.00 0.00 0.00 0.00 0.00 0.00 0.00 0.00 0.00 0.00 0.00 0.00
0.00 0.00 0.00 0.00 0.00 0.00 0.00 0.00 0.00 0.00 0.00 0.00 0.00 0.00 0.00 0.00 0.00 0.00 0.00 0.00 0.00 0.00 0.00 0.00 0.00 0.00 0.00 0.00 0.00 0.00 0.00 0.00 0.00 0.00 0.00 0.00 0.00 0.00 0.00 0.00 0.00 0.00 0.00
0.00 0.00 0.00 0.00 0.00 0.00 0.00 0.00 0.00 0.00 0.00 0.00 0.00 0.00 0.00 0.00 0.00 0.00 0.00 0.00 0.00 0.00 0.00 0.00 0.00 0.00 0.00 0.00 0.00 0.00 0.00 0.00 0.00 0.00 0.00 0.00 0.00 0.00 0.00 0.00 0.00 0.00 0.00
0.00 0.00 0.00 0.00 0.00 0.00 0.00 0.00 0.00 0.00 0.00 0.00 0.00 0.00 0.00 0.00 0.00 0.00 0.00 0.00 0.00 0.00 0.00 0.00 0.00 0.00 0.00 0.00 0.00 0.00 0.00 0.00 0.00 0.00 0.00 0.00 0.00 0.00 0.00 0.00 0.00 0.00 0.00
0.00 0.00 0.00 0.00 0.00 0.00 0.00 0.00 0.00 0.00 0.00 0.00 0.00 0.00 0.00 0.00 0.00 0.00 0.00 0.00 0.00 0.00 0.00 0.00 0.00 0.00 0.00 0.00 0.00 0.00 0.00 0.00 0.00 0.00 0.00 0.00 0.00 0.00 0.00 0.00 0.00 0.00 0.00
0.00 0.00 0.00 0.00 0.00 0.00 0.00 0.00 0.00 0.00 0.00 0.00 0.00 0.00 0.00 0.00 0.00 0.00 0.00 0.00 0.00 0.00 0.00 0.00 0.00 0.00 0.00 0.00 0.00 0.00 0.00 0.00 0.00 0.00 0.00 0.00 0.00 0.00 0.00 0.00 0.00 0.00 0.00
0.00 0.00 0.00 0.00 0.00 0.00 0.00 0.00 0.00 0.00 0.00 0.00 0.00 0.00 0.00 0.00 0.00 0.00 0.00 0.00 0.00 0.00 0.00 0.00 0.00 0.00 0.00 0.00 0.00 0.00 0.00 0.00 0.00 0.00 0.00 0.00 0.00 0.00 0.00 0.00 0.00 0.00 0.00
0.00 0.00 0.00 0.00 0.00 0.00 0.00 0.00 0.00 0.00 0.00 0.00 0.00 0.00 0.00 0.00 0.00 0.00 0.00 0.00 0.00 0.00 0.00 0.00 0.00 0.00 0.00 0.00 0.00 0.00 0.00 0.00 0.00 0.00 0.00 0.00 0.00 0.00 0.00 0.00 0.00 0.00 0.00
0.00 0.00 0.00 0.00 0.00 0.00 0.00 0.00 0.00 0.00 0.00 0.00 0.00 0.00 0.00 0.00 0.00 0.00 0.00 0.00 0.00 0.00 0.00 0.00 0.00 0.00 0.00 0.00 0.00 0.00 0.00 0.00 0.00 0.00 0.00 0.00 0.00 0.00 0.00 0.00 0.00 0.00 0.00
0.00 0.00 0.00 0.00 0.00 0.00 0.00 0.00 0.00 0.00 0.00 0.00 0.00 0.00 0.00 0.00 0.00 0.00 0.00 0.00 0.00 0.00 0.00 0.00 0.00 0.00 0.00 0.00 0.00 0.00 0.00 0.00 0.00 0.00 0.00 0.00 0.00 0.00 0.00 0.00 0.00 0.00 0.00
0.00 0.00 0.00 0.00 0.00 0.00 0.00 0.00 0.00 0.00 0.00 0.00 0.00 0.00 0.00 0.00 0.00 0.00 0.00 0.00 0.00 0.00 0.00 0.00 0.00 0.00 0.00 0.00 0.00 0.00 0.00 0.00 0.00 0.00 0.00 0.00 0.00 0.00 0.00 0.00 0.00 0.00 0.00
0.00 0.00 0.00 0.00 0.00 0.00 0.00 0.00 0.00 0.00 0.00 0.00 0.00 0.00 0.00 0.00 0.00 0.00 0.00 0.00 0.00 0.00 0.00 0.00 0.00 0.00 0.00 0.00 0.00 0.00 0.00 0.00 0.00 0.00 0.00 0.00 0.00 0.00 0.00 0.00 0.00 0.00 0.00
0.00 0.00 0.00 0.00 0.00 0.00 0.00 0.00 0.00 0.00 0.00 0.00 0.00 0.00 0.00 0.00 0.00 0.00 0.00 0.00 0.00 0.00 0.00 0.00 0.00 0.00 0.00 0.00 0.00 0.00 0.00 0.00 0.00 0.00 0.00 0.00 0.00 0.00 0.00 0.00 0.00 0.00 0.00
0.00 0.00 0.00 0.00 0.00 0.00 0.00 0.00 0.00 0.00 0.00 0.00 0.00 0.00 0.00 0.00 0.00 0.00 0.00 0.00 0.00 0.00 0.00 0.00 0.00 0.00 0.00 0.00 0.00 0.00 0.00 0.00 0.00 0.00 0.00 0.00 0.00 0.00 0.00 0.00 0.00 0.00 0.00
MSLP
1014.02 1014.66 1015.29 1015.67 1016.53 1016.85 1017.10 1017.37 1017.55 1017.51 1017.65 1017.75 1017.78 1017.76 1017.79 1017.84 1017.91 1017.87 1018.03 1018.27 1018.45 1018.69 1018.75 1018.70 1018.57 1018.34 1018.14 1017.91 1017.74 1017.44 1017.08 1016.83 1016.86 1016.47 1016.14 1015.64 1015.44 1015.11 1014.94 1014.83 1014.86 1014.76 1014.68
1013.93 1014.76 1015.35 1016.12 1016.67 1016.96 1017.58 1017.71 1017.68 1018.16 1018.21 1018.31 1018.54 1018.60 1018.54 1018.53 1018.67 1018.79 1018.87 1019.09 1019.36 1019.41 1019.50 1019.31 1019.32 1019.00 1018.75 1018.63 1018.29 1017.99 1017.57 1017.15 1016.99 1017.08 1016.88 1016.68 1016.48 1016.26 1015.89 1015.59 1015.39 1015.25 1015.38
1014.37 1015.11 1015.79 1016.43 1016.95 1017.30 1017.73 1017.91 1018.37 1018.74 1018.63 1018.83 1019.08 1019.14 1019.15 1019.22 1019.18 1019.27 1019.42 1019.72 1019.92 1019.98 1019.97 1019.77 1019.69 1019.63 1019.45 1019.12 1018.85 1018.54 1018.26 1018.00 1017.74 1017.68 1017.81 1017.55 1017.34 1017.29 1016.87 1016.58 1016.35 1016.13 1015.78
1014.65 1015.42 1016.15 1016.76 1016.99 1017.46 1017.97 1018.45 1018.82 1018.99 1019.18 1019.62 1019.50 1019.58 1019.71 1019.69 1019.75 1019.76 1020.02 1020.31 1020.40 1020.40 1020.32 1020.24 1020.18 1019.97 1019.80 1019.71 1019.52 1019.26 1019.03 1018.81 1018.60 1018.43 1018.32 1018.32 1018.27 1018.02 1017.79 1017.65 1017.24 1016.80 1016.49
1015.23 1016.10 1016.85 1017.24 1017.57 1018.04 1018.44 1018.85 1019.16 1019.43 1019.84 1019.97 1020.07 1020.25 1020.31 1020.33 1020.39 1020.40 1020.51 1020.62 1020.71 1020.75 1020.71 1020.59 1020.48 1020.34 1020.16 1020.07 1019.84 1019.67 1019.43 1019.44 1019.25 1019.20 1019.13 1019.00 1018.96 1018.59 1018.54 1018.27 1017.91 1017.52 1016.90
1015.68 1016.57 1017.22 1017.63 1018.15 1018.54 1018.79 1019.17 1019.58 1020.05 1020.37 1020.54 1020.81 1020.89 1020.86 1020.69 1020.48 1020.43 1020.53 1020.92 1021.16 1021.24 1021.25 1021.06 1020.77 1020.56 1020.40 1020.38 1020.33 1020.03 1019.70 1019.70 1019.66 1019.63 1019.66 1019.59 1019.41 1019.25 1019.01 1018.78 1018.43 1018.11 1017.73
1016.06 1016.81 1017.37 1017.88 1018.32 1018.83 1019.27 1019.71 1020.19 1020.60 1020.87 1021.15 1021.29 1021.16 1021.15 1020.97 1020.70 1020.82 1020.96 1021.19 1021.37 1021.57 1021.54 1021.42 1021.19 1020.87 1020.51 1020.39 1020.33 1020.22 1020.11 1020.02 1019.89 1019.74 1019.74 1019.73 1019.71 1019.64 1019.35 1019.05 1018.71 1018.54 1018.21
1016.61 1017.14 1017.64 1018.10 1018.67 1019.24 1019.70 1020.21 1020.61 1020.93 1021.21 1021.40 1021.51 1021.50 1021.38 1021.35 1021.15 1021.19 1021.39 1021.61 1021.72 1021.83 1021.83 1021.81 1021.64 1021.44 1021.18 1020.91 1020.72 1020.58 1020.45 1020.35 1020.17 1019.99 1019.99 1019.91 1019.74 1019.55 1019.45 1019.38 1019.06 1018.65 1018.25
1016.70 1017.22 1017.69 1018.04 1018.75 1019.39 1020.05 1020.62 1020.99 1021.24 1021.46 1021.59 1021.67 1021.58 1021.40 1021.39 1021.37 1021.44 1021.70 1021.87 1022.05 1022.21 1022.23 1022.11 1021.88 1021.64 1021.46 1021.32 1021.33 1021.42 1021.00 1020.77 1020.27 1020.00 1019.76 1019.71 1019.64 1019.36 1019.11 1019.04 1019.24 1019.19 1019.12
1016.46 1016.98 1017.58 1018.08 1018.63 1019.31 1019.89 1020.43 1020.89 1021.17 1021.49 1021.66 1021.85 1021.78 1021.63 1021.51 1021.44 1021.49 1021.85 1022.07 1022.43 1022.46 1022.24 1022.21 1021.80 1021.81 1021.65 1021.61 1021.73 1021.84 1021.75 1021.65 1021.07 1020.56 1020.38 1020.07 1019.70 1019.46 1019.15 1019.18 1019.26 1019.59 1019.62
1016.13 1016.72 1017.48 1018.07 1018.52 1019.09 1019.71 1020.33 1020.86 1021.33 1021.76 1022.02 1022.19 1022.23 1022.08 1021.95 1021.95 1021.83 1021.98 1022.16 1022.52 1022.85 1022.94 1022.75 1022.45 1021.94 1021.89 1021.99 1021.93 1021.99 1022.04 1021.65 1021.46 1021.44 1021.22 1020.80 1020.49 1020.11 1019.56 1019.22 1019.30 1019.35 1019.18
1016.15 1016.71 1017.31 1017.84 1018.37 1018.98 1019.62 1020.33 1020.83 1021.41 1021.95 1022.32 1022.49 1022.63 1022.49 1022.40 1022.21 1022.39 1022.40 1022.39 1022.48 1022.88 1023.12 1022.93 1022.73 1022.51 1022.25 1022.01 1022.03 1022.04 1021.79 1021.69 1021.82 1021.88 1022.00 1021.90 1021.46 1021.05 1020.55 1019.91 1019.42 1019.08 1018.88
1016.35 1016.82 1017.26 1017.74 1018.25 1018.75 1019.42 1020.34 1021.00 1021.47 1021.86 1022.38 1022.51 1022.67 1022.85 1022.80 1022.78 1022.47 1022.63 1022.65 1022.58 1022.68 1022.72 1022.61 1022.57 1022.64 1022.75 1022.54 1022.31 1022.26 1022.32 1022.48 1022.61 1022.82 1022.87 1022.72 1022.38 1021.82 1020.95 1020.36 1019.81 1019.36 1019.05
1016.32 1016.88 1017.28 1017.74 1018.28 1018.85 1019.39 1019.93 1020.59 1021.24 1021.64 1021.99 1022.42 1022.66 1022.66 1022.71 1022.81 1022.85 1022.94 1023.09 1023.13 1023.11 1022.96 1022.66 1022.63 1022.76 1022.85 1023.14 1022.96 1022.89 1023.03 1023.01 1023.13 1023.22 1023.09 1022.66 1022.21 1021.81 1021.55 1021.18 1020.89 1020.51 1020.22
1016.14 1016.86 1017.35 1017.92 1018.50 1019.10 1019.74 1020.13 1020.32 1020.61 1020.97 1021.61 1022.17 1022.52 1022.90 1023.16 1023.18 1023.01 1023.14 1023.30 1023.33 1023.40 1023.48 1023.39 1023.53 1023.73 1023.82 1023.74 1023.63 1023.55 1023.31 1023.30 1023.49 1023.52 1023.36 1023.19 1022.96 1022.62 1022.38 1021.93 1021.57 1021.35 1021.19
1015.78 1016.58 1017.11 1017.98 1018.80 1019.37 1019.96 1020.49 1020.59 1020.74 1020.87 1021.13 1021.53 1021.89 1022.50 1022.35 1022.76 1023.16 1023.23 1023.37 1023.51 1023.44 1023.58 1024.07 1024.23 1024.27 1024.33 1024.35 1024.17 1023.96 1023.71 1023.66 1023.67 1023.49 1023.48 1023.38 1023.28 1023.14 1022.96 1022.43 1022.15 1022.08 1021.77
1014.92 1015.97 1016.93 1017.76 1018.53 1019.27 1019.85 1020.14 1020.72 1021.04 1020.96 1021.01 1021.34 1021.76 1021.78 1022.37 1022.75 1023.30 1023.48 1023.53 1023.42 1023.22 1023.75 1024.07 1024.13 1024.12 1024.22 1024.18 1024.01 1023.98 1024.11 1024.03 1023.84 1023.87 1023.74 1023.47 1023.29 1023.08 1022.95 1022.86 1022.60 1022.32 1021.86
1014.64 1015.54 1016.39 1017.29 1018.12 1018.86 1019.68 1020.19 1020.42 1020.64 1021.08 1021.59 1021.87 1022.14 1022.16 1022.43 1022.78 1022.76 1023.02 1022.89 1023.73 1023.49 1023.54 1023.97 1024.14 1024.13 1024.15 1024.14 1023.96 1024.05 1024.13 1023.99 1024.07 1024.08 1024.02 1023.90 1023.77 1023.65 1023.36 1023.03 1022.79 1022.48 1022.08
1014.19 1015.13 1016.03 1016.95 1017.79 1018.50 1019.30 1019.90 1020.28 1020.36 1020.60 1021.09 1021.67 1021.98 1022.14 1022.44 1022.69 1023.14 1023.02 1022.98 1023.34 1023.29 1023.25 1023.50 1023.49 1023.68 1023.79 1023.81 1023.68 1023.73 1023.71 1023.97 1024.12 1024.09 1023.89 1023.71 1023.73 1023.67 1023.29 1023.12 1022.75 1022.39 1022.00
1013.78 1014.66 1015.54 1016.55 1017.36 1017.94 1018.72 1019.45 1019.76 1019.87 1020.19 1020.51 1020.67 1021.01 1021.60 1022.36 1022.18 1022.13 1022.80 1022.98 1022.83 1022.71 1022.98 1023.24 1023.21 1023.19 1023.39 1023.53 1023.63 1023.69 1023.73 1023.87 1023.78 1023.64 1023.63 1023.65 1023.72 1023.64 1023.33 1023.01 1022.73 1022.42 1021.87
1012.80 1013.76 1014.71 1015.83 1016.48 1017.05 1017.76 1018.35 1018.75 1019.19 1019.59 1019.80 1019.87 1019.72 1019.70 1020.76 1020.93 1021.33 1021.38 1021.89 1022.34 1022.23 1022.34 1022.70 1022.71 1023.01 1023.22 1023.35 1023.51 1023.63 1023.69 1023.70 1023.61 1023.52 1023.57 1023.66 1023.79 1023.86 1023.38 1022.95 1022.64 1022.15 1021.67
1011.75 1012.77 1013.83 1014.60 1015.56 1016.35 1016.86 1017.41 1017.96 1018.15 1017.89 1017.82 1018.23 1018.70 1019.18 1019.84 1020.27 1020.16 1020.36 1020.81 1021.08 1021.26 1021.28 1021.71 1021.91 1022.28 1022.69 1022.93 1023.26 1023.55 1023.70 1023.69 1023.57 1023.58 1023.44 1023.45 1023.58 1023.56 1023.25 1022.68 1022.39 1022.08 1021.58
1011.09 1011.74 1012.79 1013.70 1014.53 1015.39 1016.14 1016.55 1016.38 1015.80 1016.59 1016.85 1017.06 1017.75 1018.32 1018.53 1018.99 1019.15 1019.35 1019.43 1019.89 1020.55 1021.09 1021.43 1021.42 1021.97 1022.20 1022.41 1022.68 1022.91 1023.12 1023.29 1023.28 1023.22 1023.27 1023.35 1023.52 1023.36 1023.19 1022.79 1022.27 1021.74 1021.45
1010.12 1010.76 1011.65 1012.39 1013.25 1014.09 1014.45 1014.52 1014.67 1015.00 1015.39 1015.88 1016.21 1016.57 1017.06 1017.40 1018.01 1018.22 1018.58 1018.86 1018.98 1019.39 1020.49 1021.03 1021.09 1021.50 1021.97 1022.32 1022.59 1022.87 1022.81 1022.88 1023.12 1023.10 1023.10 1023.26 1023.44 1023.32 1023.05 1022.52 1022.12 1021.75 1021.24
1008.66 1009.45 1010.29 1011.09 1011.38 1011.84 1012.32 1012.81 1013.62 1014.39 1014.83 1015.02 1015.27 1015.71 1016.14 1016.55 1016.80 1017.34 1017.89 1018.45 1018.68 1019.15 1019.98 1020.47 1020.78 1021.04 1021.52 1021.81 1022.31 1022.48 1022.59 1022.72 1022.76 1022.95 1023.17 1023.18 1023.31 1023.10 1022.83 1022.41 1021.94 1021.59 1021.07
1007.32 1008.09 1008.85 1010.00 1010.47 1010.52 1011.34 1012.28 1012.92 1013.61 1014.42 1014.86 1014.91 1014.97 1015.36 1015.92 1015.98 1016.32 1016.94 1017.85 1018.18 1018.93 1019.47 1019.99 1020.43 1020.51 1020.89 1021.44 1021.82 1022.09 1022.40 1022.57 1022.72 1022.71 1022.95 1022.96 1023.01 1022.79 1022.54 1022.10 1021.68 1021.30 1021.04
Thickness
5812 5807 5800 5798 5789 5790 5788 5786 5783 5784 5783 5778 5775 5774 5773 5771 5768 5767 5765 5760 5756 5751 5749 5747 5747 5747 5746 5746 5744 5744 5745 5742 5734 5735 5737 5740 5739 5738 5736 5731 5727 5725 5722
5816 5808 5801 5798 5793 5792 5786 5784 5783 5779 5777 5773 5769 5766 5765 5763 5759 5756 5752 5748 5743 5741 5739 5739 5737 5739 5737 5735 5735 5736 5737 5738 5735 5727 5726 5724 5722 5722 5719 5716 5713 5711 5707
5813 5807 5801 5796 5792 5788 5784 5783 5780 5776 5775 5770 5765 5763 5760 5756 5754 5750 5745 5739 5736 5734 5732 5733 5732 5729 5728 5729 5728 5728 5727 5726 5725 5721 5712 5710 5708 5704 5703 5702 5700 5696 5694
5814 5808 5800 5795 5793 5789 5785 5782 5778 5775 5771 5763 5763 5759 5754 5751 5747 5746 5741 5735 5732 5730 5728 5727 5724 5723 5722 5721 5719 5718 5716 5714 5712 5709 5705 5699 5694 5692 5689 5685 5685 5685 5682
5809 5802 5796 5793 5790 5786 5783 5779 5776 5771 5765 5763 5759 5754 5750 5746 5742 5738 5734 5731 5728 5725 5723 5721 5720 5719 5718 5715 5712 5710 5708 5705 5701 5697 5693 5688 5683 5682 5676 5674 5672 5671 5671
5807 5798 5793 5790 5786 5783 5781 5777 5771 5766 5762 5759 5753 5749 5744 5741 5740 5737 5733 5728 5723 5720 5717 5715 5715 5713 5711 5709 5706 5705 5703 5697 5692 5686 5681 5677 5673 5669 5666 5662 5660 5658 5655
5802 5796 5792 5788 5785 5781 5777 5772 5767 5762 5758 5753 5749 5745 5740 5738 5735 5731 5727 5724 5720 5715 5712 5709 5708 5707 5706 5704 5701 5698 5695 5690 5685 5680 5673 5668 5663 5658 5655 5652 5650 5645 5642
5798 5794 5791 5787 5782 5777 5772 5766 5762 5758 5754 5751 5747 5743 5739 5734 5731 5727 5723 5719 5714 5710 5706 5702 5699 5695 5693 5691 5690 5687 5683 5679 5674 5670 5664 5659 5654 5650 5645 5639 5636 5634 5631
5798 5795 5791 5787 5780 5773 5767 5762 5757 5755 5752 5749 5745 5742 5739 5733 5727 5722 5718 5712 5708 5702 5699 5695 5693 5690 5687 5683 5679 5674 5672 5667 5665 5661 5656 5650 5643 5640 5636 5631 5622 5615 5608
5801 5797 5791 5786 5781 5774 5769 5764 5760 5757 5752 5748 5742 5739 5736 5731 5726 5720 5714 5708 5701 5696 5695 5689 5686 5682 5678 5675 5669 5663 5658 5652 5649 5647 5644 5640 5635 5631 5626 5619 5610 5598 5589
5804 5799 5793 5788 5782 5777 5771 5765 5759 5754 5748 5742 5737 5733 5730 5727 5721 5716 5710 5703 5694 5688 5682 5679 5677 5677 5673 5666 5661 5655 5649 5647 5641 5635 5630 5627 5622 5616 5612 5605 5595 5587 5578
5803 5799 5794 5790 5785 5778 5771 5764 5758 5751 5745 5738 5734 5728 5724 5720 5715 5709 5703 5698 5692 5685 5678 5674 5671 5667 5664 5661 5655 5649 5646 5640 5632 5624 5616 5610 5605 5598 5592 5589 5581 5575 5568
5800 5796 5793 5789 5783 5779 5772 5763 5755 5749 5743 5735 5731 5725 5718 5713 5709 5705 5697 5692 5688 5682 5677 5673 5668 5661 5655 5653 5649 5644 5636 5628 5620 5611 5602 5595 5587 5582 5578 5574 5567 5562 5555
5798 5794 5790 5787 5782 5776 5770 5764 5757 5747 5740 5735 5727 5720 5717 5713 5706 5700 5693 5687 5680 5674 5671 5668 5662 5658 5651 5644 5639 5634 5625 5617 5608 5601 5594 5588 5582 5572 5564 5557 5548 5542 5534
5797 5792 5788 5784 5778 5771 5764 5759 5756 5752 5746 5737 5729 5722 5711 5703 5698 5694 5688 5682 5675 5669 5663 5658 5650 5643 5637 5632 5627 5621 5616 5608 5599 5591 5583 5576 5566 5556 5547 5540 5534 5527 5518
5795 5790 5786 5778 5769 5762 5757 5751 5749 5746 5743 5739 5733 5724 5711 5706 5699 5691 5685 5678 5670 5664 5657 5649 5641 5635 5629 5623 5618 5612 5606 5601 5592 5586 5576 5566 5557 5546 5535 5529 5522 5513 5507
5798 5791 5783 5775 5767 5759 5754 5752 5744 5739 5738 5735 5730 5721 5713 5705 5695 5685 5678 5671 5666 5661 5651 5644 5636 5631 5624 5618 5614 5607 5598 5590 5584 5574 5567 5560 5550 5540 5530 5520 5513 5505 5499
5796 5788 5782 5775 5766 5760 5751 5744 5740 5739 5731 5724 5718 5711 5706 5699 5691 5685 5677 5669 5658 5652 5646 5637 5630 5625 5619 5612 5607 5598 5589 5583 5574 5566 5557 5548 5536 5527 5519 5512 5504 5497 5495
5794 5787 5779 5772 5764 5757 5750 5742 5737 5734 5729 5721 5713 5707 5702 5694 5685 5673 5670 5664 5654 5648 5643 5635 5629 5621 5614 5607 5601 5593 5586 5575 5567 5560 5552 5543 5531 5521 5515 5506 5500 5495 5489
5794 5786 5778 5769 5762 5757 5750 5741 5735 5732 5727 5720 5713 5706 5695 5688 5684 5678 5663 5656 5651 5647 5638 5630 5624 5617 5609 5602 5594 5586 5579 5570 5564 5557 5548 5537 5524 5514 5509 5502 5495 5488 5485
5798 5790 5782 5770 5764 5759 5752 5746 5740 5733 5727 5720 5714 5710 5702 5688 5682 5674 5669 5659 5648 5642 5634 5626 5621 5612 5602 5595 5587 5579 5571 5564 5558 5551 5541 5529 5517 5506 5502 5497 5490 5485 5482
5802 5794 5786 5776 5767 5758 5753 5748 5741 5736 5734 5730 5721 5709 5697 5687 5676 5675 5670 5662 5652 5643 5636 5628 5621 5610 5598 5590 5581 5571 5563 5556 5550 5543 5534 5525 5514 5504 5497 5494 5487 5481 5478
5800 5796 5788 5779 5771 5760 5752 5749 5748 5749 5738 5733 5726 5712 5699 5694 5686 5679 5673 5667 5656 5641 5629 5621 5616 5604 5595 5585 5576 5568 5561 5552 5547 5539 5530 5520 5508 5501 5493 5488 5484 5480 5476
5801 5797 5788 5782 5775 5765 5759 5757 5753 5746 5741 5733 5724 5713 5702 5696 5688 5681 5672 5663 5655 5644 5626 5616 5609 5598 5588 5578 5569 5560 5556 5550 5541 5533 5524 5514 5503 5496 5488 5484 5480 5474 5471
5805 5798 5790 5783 5781 5775 5769 5762 5752 5741 5734 5730 5724 5713 5705 5696 5689 5678 5669 5658 5648 5637 5623 5612 5603 5593 5581 5574 5564 5558 5552 5544 5536 5528 5517 5509 5500 5492 5485 5480 5476 5470 5468
5807 5800 5794 5784 5777 5776 5766 5753 5743 5732 5721 5714 5713 5710 5703 5691 5687 5677 5665 5651 5642 5628 5616 5606 5596 5589 5580 5569 5562 5555 5547 5539 5530 5524 5513 5506 5497 5490 5483 5478 5473 5468 5462